スミス彗星

C/2019 K7 ( Smith )

English version
Home page
Updated on December 24, 2019

---------------------------------------------------------------------

・ プロフィール

発見日 2019年5月30日
発見光度 17.7等
発見者 Ken W. Smith (Asteroid Terrestrial-Impact Last Alert System (ATLAS) search program)

・ 写真集

・ 軌道要素

Epoch 2020 May 31.0 TT = JDT 2459000.5
T 2020 June 16.89382 TT                                 Williams
q   4.4750149            (2000.0)            P               Q
z  -0.0003284      Peri.   27.29059     +0.46157193     -0.44583916
 +/-0.0000056      Node   307.92391     -0.88099621     -0.12911457
e   1.0014696      Incl.  103.53237     +0.10390875     +0.88575215
From 245 observations 2019 May 30-Dec. 6, mean residual 0".4.

・ 星図

・ 光度変化

        m1 = 6.0 + 5 logΔ + 10.0 log r

---------------------------------------------------------------------

軌道要素はM.P.E.C. 2019-X94に掲載されたものです。
星図はステラナビゲータ Ver.10 (アストロアーツ) で作成したものです。
光度グラフはComet for Windowsで作成したものです。

---------------------------------------------------------------------

Copyright(C) Seiichi Yoshida (comet@aerith.net). All rights reserved.